DELTA 1 DEB, 7045

Orbit data source: Space-Track

DELTA 1 DEB, 7045 is space debris in SSO originally from a launch on Tue, 06 Nov 1973 UTC launched from the Air Force Western Test Range (AFWTR). Debris objects in space refer to the collection of defunct objects orbiting the Earth. Examples of debris include non-operational satellites, rocket bodies, and fragments generated from explosions, collisions, or faulty payload assembly.

Loading next visibility...
Identifier
7045, 1973-086AM
Orbit
SSO
Country
Flag of USUS
Related business
Manufacturer
Unknown
Mission
Spacecraft
Bus & Motor
Unknown
Mass
Unknown
Launch date (UTC)
1973-11-06 (53 years ago)
Launch vehicle
Unknown
Launch site
Air Force Western Test Range (AFWTR)
Object type
Payload
Rocket body
Debris
Shape & HBR
Unknown shape, 0.1 m
Radar Cross Section
Medium (>0.1 m² and <1 m²)

Expand to show TLE details & history
Last TLE update: 20 hours ago

TLE from 20 hours ago
0 DELTA 1 DEB
1  7045U 73086AM  26208.98567264 -.00000010  00000-0  32708-3 0  9990
2  7045 102.5960 228.4582 0076158 274.7692 113.8681 12.26153796352512
Epoch: 2026-07-27T23:39Z
TLE epoch observation values (Epoch: 2026-07-27T23:39:22.116Z)
Latitude
28.701°
Longitude
-79.03848°
Altitude
1,593.919 km
Speed
7.064 km/s
True Right ascension
14h 45m 51s
True Declination
28° 34' 18"
Sunlit
Object was in daylight at epoch
Visualization orbit readout
Latitude
Unknown
Longitude
Unknown
Altitude
Unknown
Speed
Unknown
Apparent Right ascension
Unknown
Apparent Declination
Unknown
Sunlit
N/A
Visualization observer readout
Local Sidereal Time
09:32:45
Azimuth
Unknown
Elevation
Unknown
Doppler factor
Unknown
Orbital elements
Apogee altitude
1,623.961 km
Perigee altitude
1,502.997 km
Semi-major axis
7,941.616 km
Eccentricity
0.00762
Inclination
102.596°
RAAN
228.4582°
Arg. of periapsis
274.7692°
True anomaly
114.66308°
Mean anomaly
113.8681°
Eccentric anomaly
114.2659°
Mean motion
3.06676 °/min
Orbital period
117.39 mins
BSTAR
0.00032708
Loading maneuver chart data...
Computing Atmospheric mass density...
Loading historical data...
Loading historical data...
Loading historical data...
Loading historical data...
Loading historical data...
Loading historical data...
Loading historical data...

Documentation

Showing up to 5 results
|